EN

Hourly Weather Darwin

Today, 4 December, Friday

Time Temperature Precipitation Wind Pressure Humidity
00:00 +27°C° 0 mm 3 mps 756 mmHg 84%
01:00 +27°C° 0 mm 3 mps 756 mmHg 84%
02:00 +27°C° 0 mm 2 mps 755 mmHg 84%
03:00 +26°C° 0 mm 2 mps 755 mmHg 84%
04:00 +26°C° 0 mm 3 mps 755 mmHg 84%
05:00 +26°C° 0 mm 3 mps 755 mmHg 84%
06:00 +26°C° 0 mm 3 mps 756 mmHg 84%
07:00 +28°C° 0 mm 3 mps 756 mmHg 79%
08:00 +30°C° 0 mm 3 mps 756 mmHg 74%
09:00 +33°C° 0 mm 4 mps 756 mmHg 71%
10:00 +34°C° 0.2 mm 4 mps 756 mmHg 65%
11:00 +36°C° 0.2 mm 5 mps 755 mmHg 59%
12:00 +37°C° 0.2 mm 5 mps 755 mmHg 53%
13:00 +37°C° 0.5 mm 5 mps 754 mmHg 54%
14:00 +36°C° 0.5 mm 5 mps 754 mmHg 54%
15:00 +36°C° 0.5 mm 5 mps 753 mmHg 55%
16:00 +34°C° 0.9 mm 7 mps 753 mmHg 64%
17:00 +32°C° 0.9 mm 8 mps 754 mmHg 72%
18:00 +29°C° 0.9 mm 9 mps 754 mmHg 80%
19:00 +28°C° 0.8 mm 9 mps 754 mmHg 82%
20:00 +28°C° 0.8 mm 8 mps 755 mmHg 83%
21:00 +27°C° 0.8 mm 7 mps 756 mmHg 85%
22:00 +27°C° 0.1 mm 6 mps 756 mmHg 85%
23:00 +26°C° 0.1 mm 5 mps 756 mmHg 85%

Tomorrow, 5 December, Saturday

Time Temperature Precipitation Wind Pressure Humidity
00:00 +26°C° 0.1 mm 5 mps 756 mmHg 86%
01:00 +26°C° 0.1 mm 4 mps 755 mmHg 87%
02:00 +26°C° 0.1 mm 4 mps 755 mmHg 88%
03:00 +26°C° 0.1 mm 4 mps 754 mmHg 89%
04:00 +26°C° 1.3 mm 4 mps 754 mmHg 89%
05:00 +26°C° 1.3 mm 5 mps 755 mmHg 90%
06:00 +26°C° 1.3 mm 5 mps 755 mmHg 90%
07:00 +27°C° 1.6 mm 5 mps 756 mmHg 89%
08:00 +27°C° 1.6 mm 5 mps 756 mmHg 89%
09:00 +28°C° 1.6 mm 5 mps 757 mmHg 88%
10:00 +28°C° 1.3 mm 5 mps 757 mmHg 89%
11:00 +28°C° 1.3 mm 5 mps 757 mmHg 89%
12:00 +28°C° 1.3 mm 5 mps 756 mmHg 89%
13:00 +28°C° 0.5 mm 5 mps 756 mmHg 89%
14:00 +27°C° 0.5 mm 6 mps 755 mmHg 88%
15:00 +27°C° 0.5 mm 6 mps 755 mmHg 88%
16:00 +27°C° 0.4 mm 6 mps 755 mmHg 89%
17:00 +27°C° 0.4 mm 7 mps 755 mmHg 90%
18:00 +26°C° 0.4 mm 7 mps 755 mmHg 91%
19:00 +26°C° 0 mm 6 mps 756 mmHg 91%
20:00 +26°C° 0 mm 6 mps 756 mmHg 91%
21:00 +26°C° 0 mm 5 mps 756 mmHg 91%
22:00 +26°C° 0.1 mm 5 mps 756 mmHg 91%
23:00 +26°C° 0.1 mm 6 mps 756 mmHg 91%

Day after tomorrow, 6 December, Sunday

Time Temperature Precipitation Wind Pressure Humidity
00:00 +26°C° 0.1 mm 6 mps 756 mmHg 91%
01:00 +26°C° 0.1 mm 5 mps 756 mmHg 92%
02:00 +26°C° 0.1 mm 5 mps 755 mmHg 93%
03:00 +25°C° 0.1 mm 4 mps 754 mmHg 94%
04:00 +26°C° 0 mm 3 mps 754 mmHg 93%
05:00 +26°C° 0 mm 3 mps 755 mmHg 92%
06:00 +26°C° 0 mm 2 mps 755 mmHg 92%
07:00 +27°C° 0.1 mm 3 mps 755 mmHg 87%
08:00 +29°C° 0.1 mm 3 mps 756 mmHg 82%
09:00 +32°C° 0.1 mm 4 mps 756 mmHg 77%
10:00 +33°C° 1.5 mm 4 mps 756 mmHg 71%
11:00 +34°C° 1.5 mm 4 mps 756 mmHg 65%
12:00 +36°C° 1.5 mm 4 mps 756 mmHg 59%
13:00 +34°C° 2.6 mm 4 mps 755 mmHg 69%
14:00 +30°C° 2.6 mm 3 mps 755 mmHg 79%
15:00 +28°C° 2.6 mm 3 mps 754 mmHg 90%
16:00 +28°C° 2 mm 3 mps 755 mmHg 90%
17:00 +28°C° 2 mm 4 mps 755 mmHg 90%
18:00 +28°C° 2 mm 4 mps 756 mmHg 90%
19:00 +27°C° 0.5 mm 4 mps 756 mmHg 91%
20:00 +27°C° 0.5 mm 3 mps 757 mmHg 92%
21:00 +27°C° 0.5 mm 2 mps 757 mmHg 92%
22:00 +27°C° 0.2 mm 2 mps 757 mmHg 93%
23:00 +27°C° 0.2 mm 2 mps 757 mmHg 94%

7 December, Monday

Time Temperature Precipitation Wind Pressure Humidity
00:00 +27°C° 0.2 mm 3 mps 757 mmHg 94%
01:00 +27°C° 0.6 mm 3 mps 757 mmHg 94%
02:00 +27°C° 0.6 mm 3 mps 756 mmHg 94%
03:00 +26°C° 0.6 mm 4 mps 756 mmHg 95%
04:00 +26°C° 0.3 mm 3 mps 756 mmHg 94%
05:00 +26°C° 0.3 mm 3 mps 756 mmHg 93%
06:00 +26°C° 0.3 mm 2 mps 756 mmHg 92%
07:00 +28°C° 0 mm 2 mps 756 mmHg 86%
08:00 +29°C° 0 mm 1 mps 757 mmHg 80%
09:00 +31°C° 0 mm 1 mps 757 mmHg 74%
10:00 +31°C° 0 mm 1 mps 757 mmHg 71%
11:00 +30°C° 0 mm 0 mps 757 mmHg 69%
12:00 +30°C° 0 mm 0 mps 757 mmHg 67%
13:00 +32°C° 1 mm 1 mps 756 mmHg 67%
14:00 +32°C° 1 mm 2 mps 756 mmHg 67%
15:00 +32°C° 1 mm 2 mps 755 mmHg 67%
16:00 +31°C° 0.8 mm 3 mps 755 mmHg 73%
17:00 +30°C° 0.8 mm 3 mps 755 mmHg 79%
18:00 +28°C° 0.8 mm 4 mps 756 mmHg 85%
19:00 +28°C° 0 mm 3 mps 756 mmHg 86%
20:00 +28°C° 0 mm 3 mps 757 mmHg 87%
21:00 +28°C° 0 mm 2 mps 757 mmHg 88%
22:00 +27°C° 0 mm 2 mps 757 mmHg 89%
23:00 +27°C° 0 mm 2 mps 757 mmHg 90%

8 December, Tuesday

Time Temperature Precipitation Wind Pressure Humidity
00:00 +27°C° 0 mm 2 mps 757 mmHg 91%
01:00 +27°C° 0 mm 2 mps 756 mmHg 90%
02:00 +27°C° 0 mm 2 mps 756 mmHg 90%
03:00 +27°C° 0 mm 2 mps 755 mmHg 89%
04:00 +27°C° 0 mm 2 mps 756 mmHg 89%
05:00 +27°C° 0 mm 2 mps 756 mmHg 88%
06:00 +27°C° 0 mm 1 mps 756 mmHg 87%
07:00 +28°C° 0 mm 2 mps 756 mmHg 81%
08:00 +30°C° 0 mm 2 mps 757 mmHg 74%
09:00 +32°C° 0 mm 2 mps 757 mmHg 67%
10:00 +34°C° 0.4 mm 2 mps 757 mmHg 63%
11:00 +35°C° 0.4 mm 2 mps 757 mmHg 59%
12:00 +36°C° 0.4 mm 3 mps 757 mmHg 55%
13:00 +35°C° 2.2 mm 4 mps 756 mmHg 62%
14:00 +33°C° 2.2 mm 5 mps 756 mmHg 68%
15:00 +32°C° 2.2 mm 6 mps 756 mmHg 75%
16:00 +30°C° 1.5 mm 6 mps 756 mmHg 78%
17:00 +29°C° 1.5 mm 6 mps 756 mmHg 80%
18:00 +28°C° 1.5 mm 6 mps 756 mmHg 83%
19:00 +28°C° 0 mm 6 mps 756 mmHg 82%
20:00 +29°C° 0 mm 6 mps 756 mmHg 80%
21:00 +29°C° 0 mm 5 mps 757 mmHg 79%
22:00 +29°C° 0 mm 4 mps 756 mmHg 80%
23:00 +28°C° 0 mm 4 mps 756 mmHg 81%

9 December, Wednesday

Time Temperature Precipitation Wind Pressure Humidity
00:00 +28°C° 0 mm 3 mps 756 mmHg 82%
01:00 +28°C° 0 mm 3 mps 756 mmHg 85%
02:00 +27°C° 0 mm 3 mps 755 mmHg 87%
03:00 +27°C° 0 mm 2 mps 755 mmHg 89%
04:00 +27°C° 0 mm 2 mps 755 mmHg 89%
05:00 +27°C° 0 mm 2 mps 755 mmHg 89%
06:00 +27°C° 0 mm 2 mps 756 mmHg 89%
07:00 +28°C° 0 mm 2 mps 756 mmHg 84%
08:00 +29°C° 0 mm 1 mps 756 mmHg 79%
09:00 +30°C° 0 mm 1 mps 757 mmHg 74%
10:00 +31°C° 0 mm 1 mps 756 mmHg 70%
11:00 +34°C° 0 mm 2 mps 756 mmHg 65%
12:00 +35°C° 0 mm 2 mps 756 mmHg 60%
13:00 +35°C° 0 mm 2 mps 755 mmHg 58%
14:00 +36°C° 0 mm 3 mps 755 mmHg 57%
15:00 +36°C° 0 mm 3 mps 754 mmHg 55%
16:00 +35°C° 0 mm 3 mps 754 mmHg 62%
17:00 +33°C° 0 mm 4 mps 754 mmHg 69%
18:00 +32°C° 0 mm 4 mps 754 mmHg 76%
19:00 +31°C° 0 mm 3 mps 754 mmHg 79%
20:00 +30°C° 0 mm 3 mps 755 mmHg 81%
21:00 +29°C° 0 mm 3 mps 755 mmHg 84%
22:00 +29°C° 0 mm 2 mps 755 mmHg 85%
23:00 +29°C° 0 mm 2 mps 755 mmHg 86%
Show more

We Need Your Consent

Meteoprog and our Service Providers may store and access personal data such as cookies, device identifiers or other similar technologies on your device and process such data to personalise content and ads, as well as provide social media features and to analyse the traffic.

  • Store and/or access information on your device

    Cookies, device identifiers or other information can be stored or accessed on your device for the purposes indicated above.

  • Personalised ads and content, ad and content measurement, audience insights, and products development

    Ads and content can be personalised based on a profile. More data can be added to better personalise ads and content. Ad and content performance can be measured. Insights about the audience who saw the ads and content can be derived. Such data can be used to develop or improve user’s experience, systems and software.

By clicking ‘I Agree’ you will allow the use of indicated cookies, device identifiers, web beacons or other similar technologies. Your settings can be changed in the browser on your device.

For certain purposes, legitimate interests may be relied on, rather than consent. You can read more about this in our Privacy and Cookie Policy.